Preview of NWS' New Version of Forecast
This preview is not operational and should not be used for support decisions.

Regional Weather Roundup (RWR)

Issued by National Weather Service (NWS)

                            
000
ASUS43 KMKX 171710
RWRWI 

WISCONSIN REGIONAL WEATHER ROUNDUP
NATIONAL WEATHER SERVICE MILWAUKEE/SULLIVAN WI
1100 AM CST SUN FEB 17 2019

NOTE: "FAIR" INDICATES FEW OR NO CLOUDS BELOW 12,000 FEET WITH NO
SIGNIFICANT WEATHER AND/OR OBSTRUCTIONS TO VISIBILITY.

WIZ001-002-006>008-014>016-023>028-171800-
NORTHWEST WISCONSIN
  
CITY           SKY/WX    TMP DP  RH WIND       PRES   REMARKS
SUPERIOR ARPT  FAIR      17  10  71 E10       30.18R WCI   5          
ASHLAND        CLOUDY    16   8  71 NE16      30.16S WCI   1          
HAYWARD        FAIR      17   8  67 NE9       30.09S WCI   6          
SIREN          FAIR      20  10  65 NE8       30.09S WCI  10          
CUMBERLAND     CLOUDY    19  10  68 NE10      30.05R WCI   8          
RICE LAKE      CLOUDY    22  14  72 NE8       30.06S WCI  12          
CHETEK         CLOUDY    19  11  70 NE6       30.05S WCI  11          
LADYSMITH      PTSUNNY   20  11  68 NE10      30.05F WCI   9          
EAU CLAIRE     CLOUDY    20  12  71 NE14      30.02R WCI   7          
MENOMONIE      CLOUDY    18  11  75 NE9       30.03S HAZE    WCI   6  
NEW RICHMOND   CLOUDY    21  12  68 NE9G17    30.03S WCI  11          
OSCEOLA        CLOUDY    21  15  76 NE10      30.08S WCI  10          
$$
 
WIZ003>005-009-010-017-018-171800-
NORTH CENTRAL WISCONSIN
  
CITY           SKY/WX    TMP DP  RH WIND       PRES   REMARKS
MANITOWISH WTR NOT AVBL                                               
ARBOR VITAE    PTSUNNY   18  11  74 SE9       30.04S WCI   7          
WOODRUFF       PTSUNNY   18  11  74 SE9       30.04S WCI   7          
RHINELANDER    PTSUNNY   19   9  65 E6        30.02F WCI  11          
EAGLE RIVER    FLURRIES  16   9  74 NE9       30.04R WCI   4          
LAND O LAKES   PTSUNNY   16  11  80 NE9       30.06F WCI   4          
PHILLIPS       PTSUNNY   16   9  74 E8        30.03S WCI   5          
TOMAHAWK       FAIR      19  10  67 NE7       30.03F WCI  10          
MEDFORD        CLOUDY    16  10  76 NE10      30.00S WCI   4          
MERRILL        CLOUDY    19  11  72 E8        30.03S WCI   9          
$$
 
WIZ029-030-035-036-043>047-171800-
CENTRAL WISCONSIN
  
CITY           SKY/WX    TMP DP  RH WIND       PRES   REMARKS
WAUSAU         CLOUDY    19  11  70 NE10      30.00R WCI   7          
MOSINEE        CLOUDY    18  14  86 NE17      30.01R WCI   2          
MARSHFIELD     CLOUDY    19  13  77 E16G24    29.97S WCI   4          
STEVENS POINT  CLOUDY    18  13  80 NE14G20   30.00S WCI   4          
WAUPACA        CLOUDY    23  15  71 NE10G16   30.01S WCI  12          
WAUTOMA        CLOUDY    22  16  78 NE16      29.98  WCI   8          
WISC RAPIDS    CLOUDY    21  12  68 NE10G20   30.00R WCI  10          
CAMP DOUGLAS   FLURRIES  23  16  74 NE8       29.96S WCI  14          
$$
 
WIZ011>013-019>022-031-037>040-048>050-171800-
NORTHEAST WISCONSIN
  
CITY           SKY/WX    TMP DP  RH WIND       PRES   REMARKS
ANTIGO         CLOUDY    16  11  78 NE12      30.01F WCI   3          
SHAWANO        CLOUDY    23  15  70 NE9G20    30.05S WCI  13          
OCONTO         CLOUDY    20  13  74 NE10G16   30.07F WCI   9          
STURGEON BAY   FLURRIES  24  17  74 NE10      30.05S WCI  14          
GREEN BAY      FLURRIES  22  15  75 NE16      30.04S WCI   8          
MANITOWOC      FLURRIES  25  17  72 E16       30.01F WCI  12          
APPLETON       CLOUDY    21  12  68 NE10      29.98F WCI  10          
CLINTONVILLE   CLOUDY    20  13  73 NE9       30.03S WCI  10          
OSHKOSH        CLOUDY    24  16  71 E15G26    29.97S WCI  11          
$$
 
WIZ032>034-041-042-053>061-171800-
SOUTHWEST WISCONSIN
  
CITY           SKY/WX    TMP DP  RH WIND       PRES   REMARKS
LA CROSSE      LGT SNOW  25  19  78 NE6       29.97R WCI  18          
SPARTA         CLOUDY    23  17  79 NE10G22   29.98R WCI  12          
VIROQUA        CLOUDY    24  21  90 NE14G20   29.90S VSB 1   WCI  11  
BOSCOBEL       LGT SNOW  25  20  81 NE8       29.92S VSB 3/4 WCI  16  
PRAIRIE DU CHI LGT SNOW  25  19  80 NE9       29.91R WCI  15          
PLATTEVILLE    CLOUDY    26  25  97 NE13      29.86S VSB 1   WCI  15  
$$

WIZ056-057-062-063-064-067-068-171800-
SOUTH CENTRAL WISCONSIN
  
CITY           SKY/WX    TMP DP  RH WIND       PRES   REMARKS
REEDSBURG      LGT SNOW  22  18  81 NE9G17    29.93S WCI  12          
BARABOO/DELLS  LGT SNOW  22  18  85 NE9       29.93S WCI  12          
LONE ROCK      LGT SNOW  25  21  85 NE12      29.92S VSB 1   WCI  14  
MINERAL POINT  LGT SNOW  28  27  93 NE15      29.85F VSB 1   WCI  17  
MADISON        LGT SNOW  24  20  84 NE17      29.91S VSB 3/4 WCI  11  
MIDDLETON      CLOUDY    26  23  87 NE12G20   29.91S WCI  16          
WATERTOWN      MIX PCPN  26  22  85 E12G18    29.91R WCI  16          
MONROE         LGT SNOW  27  22  84 MISG      29.85F                  
JANESVILLE     LGT SNOW  28  27  93 E13       29.88S WCI  18          
$$
 
WIZ051-052-058>065-066-070>072-171800-
SOUTHEAST WISCONSIN
  
CITY           SKY/WX    TMP DP  RH WIND       PRES   REMARKS
MILWAUKEE      LGT SNOW  27  22  81 E14       29.92F WCI  16          
WAUKESHA       LGT SNOW  25  19  80 E15G21    29.92R WCI  12          
MILWAUKEE/TIMM LGT SNOW  27  21  80 NE12      29.93F WCI  16          
RACINE         LGT SNOW  27  22  81 E13       29.93S VSB 3/4 WCI  16  
KENOSHA        LGT SNOW  28  24  85 E13       29.90R FOG     WCI  17  
FOND DU LAC    CLOUDY    24  16  71 E16G26    29.96F WCI  11          
SHEBOYGAN      CLOUDY    24  17  74 E15       29.98F WCI  11          
WEST BEND      LGT SNOW  25  21  86 E16G24    29.94S WCI  12          
JUNEAU         FLURRIES  24  19  81 NE16      29.94R WCI  10          
$$

LSZ147-162-171800-
LAKE SUPERIOR
  
STATION/POSITION TIME  TEMP    WIND        PRES    WAVE
                       AIR SEA DIR/SP/G            HT/PER
                 (UTC) (F)     (DEG/KT/KT) (MB)    (FT/S)
DEVILS ISLAND    1700   17      70/ 15/ 16 1024.0R
SAXON HARBOR     1630   13     300/  2/  3 1021.3S
$$
 
LMZ867-665-643>646-171800-
LAKE MICHIGAN
  
STATION/POSITION TIME  TEMP    WIND        PRES    WAVE
                       AIR SEA DIR/SP/G            HT/PER
                 (UTC) (F)     (DEG/KT/KT) (MB)    (FT/S)
CHAMBERS ISLAND  1640   18      20/ 16/ 19 1018.3R
NORTHPORT PIER   1700   21      40/  6/ 10 1019.3
KEWAUNEE LAKESHO 1648   24      70/ 13/ 17 1016.6R
SHEBOYGAN LAKESH 1700   24      70/ 18/ 20 1016.1F
PORT WASHINGTON  1630   27      80/ 15/ 19 1015.9F
MILWAUKEE LAKESH 1650   26      80/ 20/ 23   N/A
KENOSHA   LAKESH 1700   28     100/ 15/ 18 1012.9
$$

TC  - TEMPERATURE IN CELSIUS
VSB - VISIBILITY IN STATUTE MILES
WCI - WIND CHILL INDEX
HX  - HEAT INDEX